Rochester, MN

11:11 PM CST on December 10, 2016 (GMT -0600)
Rochester/St. Mary\'s Hospita

Weather History for K9MN - September, 2013

Change the Weather History Date:

Thursday, September 12, 2013

  Actual Average (KRST) Record (KRST)
Temperature  
Mean Temperature 62 °F -  
Max Temperature 70 °F 73 °F 94 °F (1948)
Min Temperature 55 °F 51 °F 30 °F (1955)
Degree Days  
Heating Degree Days 2    
Growing Degree Days 12 (Base 50)    
Moisture  
Dew Point 45 °F    
Average Humidity 54    
Maximum Humidity 78    
Minimum Humidity 33    
Precipitation  
Precipitation 0.00 in - - ()
Sea Level Pressure  
Sea Level Pressure 30.15 in    
Wind  
Wind Speed 10 mph (NW)    
Max Wind Speed 20 mph    
Max Gust Speed 31 mph    
Visibility 10 miles    
Events      
Averages and records for this station are not official NWS values.
T = Trace of Precipitation, MM = Missing Value Source: NWS Daily Summary

Daily Weather History Graph

Daily Weather History Graph

Search for Another Location

Airport or City:

Trip Planner

Search our weather history database for the weather conditions in past years. The results will help you decide how hot, cold, wet, or windy it might be!

Date:

Astronomy

Sep. 12, 2013 Rise Set
Actual Time 6:45 AM CDT 7:25 PM CDT
Civil Twilight 6:16 AM CDT 7:54 PM CDT
Nautical Twilight 5:42 AM CDT 8:28 PM CDT
Astronomical Twilight 5:06 AM CDT 9:04 PM CDT
Moon 2:27 PM CDT (9/12) No Moon Set
Length of Visible Light 13h 37m
Length of Day
12h 39m
Waxing Crescent, 50% of the Moon is Illuminated
Sep 12
Waxing Crescent
Sep 12
First Quarter
Sep 19
Full
Sep 26
Last Quarter
Oct 4
New

Hourly Weather History & Observations

Time (CDT) Temp. Dew Point Humidity Pressure Visibility Wind Dir Wind Speed Gust Speed Precip Events Conditions
12:14 AM 65.3 °F 50.4 °F 58% 30.06 in 10.0 mi West 11.5 mph - N/A   Clear
12:33 AM 65.3 °F 50.4 °F 58% 30.06 in 10.0 mi West 10.4 mph - N/A   Clear
12:54 AM 64.8 °F 50.4 °F 60% 30.06 in 10.0 mi WNW 10.4 mph - N/A   Clear
1:14 AM 64.4 °F 50.2 °F 60% 30.06 in 10.0 mi WNW 9.2 mph - N/A   Clear
1:33 AM 63.7 °F 50.2 °F 61% 30.07 in 10.0 mi WNW 10.4 mph - N/A   Clear
1:54 AM 63.5 °F 50.0 °F 61% 30.07 in 10.0 mi WNW 11.5 mph - N/A   Clear
2:14 AM 62.8 °F 49.3 °F 61% 30.07 in 10.0 mi West 11.5 mph - N/A   Clear
2:33 AM 62.2 °F 48.7 °F 61% 30.07 in 10.0 mi West 11.5 mph - N/A   Clear
2:54 AM 61.2 °F 48.9 °F 64% 30.08 in 10.0 mi WNW 10.4 mph - N/A   Clear
3:14 AM 60.8 °F 48.4 °F 64% 30.08 in 10.0 mi WNW 10.4 mph - N/A   Clear
3:33 AM 60.4 °F 47.5 °F 62% 30.09 in 10.0 mi WNW 9.2 mph - N/A   Clear
3:54 AM 59.9 °F 47.5 °F 64% 30.09 in 10.0 mi WNW 11.5 mph - N/A   Clear
4:13 AM 59.9 °F 47.5 °F 64% 30.09 in 10.0 mi WNW 10.4 mph - N/A   Clear
4:33 AM 59.5 °F 47.3 °F 64% 30.10 in 10.0 mi WNW 10.4 mph 17.3 mph N/A   Clear
4:54 AM 59.2 °F 47.7 °F 66% 30.10 in 10.0 mi NW 10.4 mph - N/A   Clear
5:13 AM 58.6 °F 47.5 °F 66% 30.11 in 10.0 mi NW 8.1 mph - N/A   Clear
5:33 AM 58.1 °F 47.3 °F 67% 30.12 in 10.0 mi NW 8.1 mph - N/A   Clear
5:54 AM 57.6 °F 47.3 °F 69% 30.12 in 10.0 mi NW 8.1 mph - N/A   Clear
6:13 AM 56.8 °F 47.5 °F 71% 30.13 in 10.0 mi NW 8.1 mph - N/A   Clear
6:33 AM 55.9 °F 47.7 °F 74% 30.13 in 10.0 mi NW 8.1 mph - N/A   Clear
6:54 AM 55.4 °F 47.7 °F 75% 30.14 in 10.0 mi NW 8.1 mph - N/A   Clear
7:13 AM 55.0 °F 47.8 °F 77% 30.15 in 10.0 mi NW 5.8 mph - N/A   Clear
7:33 AM 55.0 °F 48.2 °F 78% 30.15 in 10.0 mi NNW 6.9 mph - N/A   Clear
7:54 AM 55.8 °F 48.2 °F 76% 30.16 in 10.0 mi NW 8.1 mph - N/A   Clear
8:13 AM 56.3 °F 48.2 °F 74% 30.16 in 10.0 mi NW 6.9 mph - N/A   Clear
8:33 AM 57.2 °F 48.2 °F 72% 30.17 in 10.0 mi NW 9.2 mph 16.1 mph N/A   Clear
8:54 AM 58.1 °F 48.4 °F 70% 30.17 in 10.0 mi WNW 8.1 mph 17.3 mph N/A   Clear
9:13 AM 59.0 °F 47.3 °F 65% 30.18 in 10.0 mi NW 11.5 mph 17.3 mph N/A   Clear
9:33 AM 59.9 °F 47.7 °F 64% 30.18 in 10.0 mi NW 10.4 mph - N/A   Clear
9:54 AM 60.3 °F 47.7 °F 63% 30.19 in 10.0 mi NW 10.4 mph 16.1 mph N/A   Clear
10:13 AM 61.3 °F 47.1 °F 60% 30.19 in 10.0 mi NNW 9.2 mph - N/A   Clear
10:34 AM 63.1 °F 46.8 °F 55% 30.19 in 10.0 mi NNW 6.9 mph 17.3 mph N/A   Clear
10:54 AM 63.7 °F 45.1 °F 51% 30.19 in 10.0 mi NNW 13.8 mph 23.0 mph N/A   Clear
11:13 AM 64.4 °F 44.1 °F 48% 30.19 in 10.0 mi NNW 12.7 mph 21.9 mph N/A   Clear
11:34 AM 65.3 °F 44.8 °F 47% 30.19 in 10.0 mi NW 13.8 mph 28.8 mph N/A   Clear
11:54 AM 66.2 °F 45.1 °F 47% 30.19 in 10.0 mi NW 13.8 mph 27.6 mph N/A   Scattered Clouds
12:13 PM 66.6 °F 44.1 °F 44% 30.18 in 10.0 mi NNW 12.7 mph 20.7 mph N/A   Scattered Clouds
12:34 PM 67.3 °F 43.9 °F 43% 30.19 in 10.0 mi NNW 10.4 mph 18.4 mph N/A   Clear
12:54 PM 68.0 °F 44.1 °F 42% 30.18 in 10.0 mi NW 9.2 mph 19.6 mph N/A   Scattered Clouds
1:13 PM 68.0 °F 43.3 °F 41% 30.18 in 10.0 mi NW 12.7 mph 24.2 mph N/A   Scattered Clouds
1:34 PM 69.1 °F 42.8 °F 39% 30.17 in 10.0 mi WNW 15.0 mph 20.7 mph N/A   Mostly Cloudy
1:54 PM 68.7 °F 42.4 °F 39% 30.17 in 10.0 mi NW 9.2 mph 25.3 mph N/A   Scattered Clouds
2:13 PM 68.9 °F 42.8 °F 39% 30.17 in 10.0 mi WNW 16.1 mph 25.3 mph N/A   Mostly Cloudy
2:34 PM 69.4 °F 41.7 °F 37% 30.17 in 10.0 mi NNW 11.5 mph 24.2 mph N/A   Mostly Cloudy
2:54 PM 69.1 °F 41.9 °F 37% 30.17 in 10.0 mi NNW 10.4 mph 21.9 mph N/A   Mostly Cloudy
3:13 PM 70.0 °F 41.0 °F 35% 30.15 in 10.0 mi WNW 19.6 mph 27.6 mph N/A   Mostly Cloudy
3:34 PM 68.9 °F 39.9 °F 35% 30.16 in 10.0 mi NNW 11.5 mph 31.1 mph N/A   Scattered Clouds
3:54 PM 70.7 °F 39.9 °F 33% 30.15 in 10.0 mi NW 12.7 mph 21.9 mph N/A   Scattered Clouds
4:13 PM 69.8 °F 40.6 °F 35% 30.15 in 10.0 mi NW 12.7 mph 23.0 mph N/A   Scattered Clouds
4:34 PM 69.4 °F 40.3 °F 35% 30.15 in 10.0 mi NNW 11.5 mph 21.9 mph N/A   Scattered Clouds
4:53 PM 69.8 °F 40.1 °F 34% 30.15 in 10.0 mi NW 9.2 mph 25.3 mph N/A   Scattered Clouds
5:13 PM 68.2 °F 40.5 °F 36% 30.15 in 10.0 mi NW 10.4 mph 26.5 mph N/A   Mostly Cloudy
5:34 PM 69.8 °F 39.9 °F 34% 30.15 in 10.0 mi North 13.8 mph 20.7 mph N/A   Scattered Clouds
5:53 PM 68.2 °F 39.2 °F 35% 30.16 in 10.0 mi NNW 9.2 mph 20.7 mph N/A   Mostly Cloudy
6:13 PM 68.2 °F 40.3 °F 36% 30.16 in 10.0 mi NNW 9.2 mph - N/A   Scattered Clouds
6:34 PM 67.1 °F 39.7 °F 37% 30.17 in 10.0 mi North 10.4 mph 17.3 mph N/A   Mostly Cloudy
6:53 PM 66.7 °F 40.1 °F 38% 30.17 in 10.0 mi NNW 8.1 mph - N/A   Scattered Clouds
7:13 PM 66.2 °F 40.8 °F 40% 30.17 in 10.0 mi NNW 4.6 mph - N/A   Scattered Clouds
7:34 PM 64.8 °F 41.2 °F 42% 30.17 in 10.0 mi NNW 4.6 mph - N/A   Clear
7:53 PM 63.9 °F 41.2 °F 43% 30.18 in 10.0 mi North 6.9 mph - N/A   Clear
8:13 PM 63.5 °F 41.5 °F 45% 30.19 in 10.0 mi NNW 4.6 mph - N/A   Clear
8:34 PM 62.6 °F 41.7 °F 46% 30.19 in 10.0 mi NNW 4.6 mph - N/A   Scattered Clouds
8:53 PM 61.9 °F 41.9 °F 48% 30.19 in 10.0 mi NNW 4.6 mph - N/A   Clear
9:14 PM 61.2 °F 42.4 °F 50% 30.20 in 10.0 mi NW 4.6 mph - N/A   Clear
9:34 PM 60.1 °F 42.8 °F 53% 30.20 in 10.0 mi NW 4.6 mph - N/A   Clear
9:53 PM 59.4 °F 43.3 °F 55% 30.20 in 10.0 mi NW 4.6 mph - N/A   Clear
10:14 PM 59.0 °F 43.5 °F 56% 30.21 in 10.0 mi Calm Calm - N/A   Clear
10:34 PM 58.5 °F 43.7 °F 58% 30.21 in 10.0 mi Calm Calm - N/A   Clear
10:53 PM 57.4 °F 44.4 °F 62% 30.21 in 10.0 mi Calm Calm - N/A   Clear
11:14 PM 56.7 °F 44.4 °F 64% 30.22 in 10.0 mi NW 3.5 mph - N/A   Clear
11:34 PM 55.9 °F 44.4 °F 65% 30.22 in 10.0 mi Calm Calm - N/A   Clear
11:53 PM 55.4 °F 44.6 °F 67% 30.22 in 10.0 mi Calm Calm - N/A   Clear